Flag for Cyprus Weather past 2 weeks in Larnaca, Cyprus

Now
86 °F

Clear.


Feels Like: 97 °F
Forecast: 74 / 98 °F
Wind: 13 mph from Southwest

Location: Larnaca Airport

Current Time: Aug 4, 2015 at 9:27:42 PM

Latest Report: Aug 4, 2015 at 9:00 PM


Visibility: 5 mi

Pressure: 29.68 "Hg

Humidity: 75%

Dew point: 77 °F

Location of LarnacaLocation

Historic Weather in Larnaca — Graph

°F

Larnaca temperature yesterday

Maximum temperature yesterday: 102 °F (at 10:00 AM)
Minimum temperature yesterday: 84 °F (at 1:30 AM)
Average temperature yesterday: 94 °F

Past Weeks' High & Low Weather Summary

 TemperatureHumidityPressure
High102 °F (Aug 3, 10:00 AM)100% (Jul 21, 1:30 AM)29.80 "Hg (Jul 21, 1:30 AM)
Low66 °F (Jul 24, 6:00 AM)21% (Jul 21, 8:00 PM)29.62 "Hg (Jul 20, 8:00 PM)
Average84 °F64%29.71 "Hg
* Reported Jul 20 8:00 PM — Aug 4 8:30 PM, Larnaca, Weather by CustomWeather, © 2015

Note: Actual official high and low records may vary slightly from our data, if they occured in-between our weather recording intervals... More about our weather records

Advertising

Larnaca weather history for previous 24 hours

 ConditionsComfort  
Time TempWeatherWind HumidityBarometerVisibility
8:30 PM
Tue, Aug 4
86 °FClear.12 mph75%29.68 "Hg6 mi
8:00 PM88 °FClear.12 mph70%29.68 "Hg6 mi
7:30 PM90 °FSunny.14 mph67%29.68 "Hg10 mi
7:00 PM90 °FPassing clouds.16 mph67%29.68 "HgN/A
6:30 PM91 °FPassing clouds.16 mph59%29.68 "HgN/A
6:00 PM93 °FPassing clouds.15 mph53%29.68 "HgN/A
5:30 PM93 °FPassing clouds.15 mph56%29.68 "HgN/A
5:00 PM93 °FPassing clouds.14 mph56%29.71 "HgN/A
4:30 PM97 °FPassing clouds.12 mph44%29.71 "HgN/A
4:00 PM97 °FPassing clouds.9 mph37%29.71 "HgN/A
3:30 PM97 °FPassing clouds.9 mph37%29.71 "HgN/A
3:00 PM97 °FPassing clouds.10 mph39%29.71 "HgN/A
2:30 PM95 °FPassing clouds.14 mph50%29.71 "HgN/A
2:00 PM91 °FPassing clouds.13 mph63%29.71 "HgN/A
1:30 PM93 °FPassing clouds.12 mph56%29.74 "HgN/A
1:00 PM95 °FPassing clouds.9 mph47%29.71 "HgN/A
12:30 PM95 °FPassing clouds.9 mph50%29.71 "HgN/A
12:00 PM93 °FPassing clouds.9 mph53%29.74 "HgN/A
11:30 AM95 °FPassing clouds.8 mph39%29.74 "HgN/A
11:00 AM95 °FPassing clouds.8 mph39%29.74 "HgN/A
10:30 AM95 °FPassing clouds.6 mph39%29.74 "HgN/A
10:00 AM93 °FPassing clouds.7 mph53%29.74 "HgN/A
9:30 AM91 °FPassing clouds.7 mph56%29.74 "HgN/A
9:00 AM90 °FPassing clouds.7 mph59%29.74 "HgN/A
8:30 AM90 °FPassing clouds.8 mph55%29.74 "HgN/A
8:00 AM90 °FSunny.6 mph55%29.74 "Hg10 mi
7:30 AM88 °FSunny.5 mph55%29.74 "Hg10 mi
7:00 AM84 °FSunny.3 mph58%29.71 "Hg10 mi
6:30 AM81 °FClear.5 mph62%29.71 "Hg10 mi
6:00 AM81 °FClear.5 mph62%29.71 "Hg10 mi
5:30 AM82 °FClear.7 mph55%29.71 "Hg10 mi
5:00 AM82 °FClear.5 mph42%29.68 "Hg10 mi
4:30 AM84 °FClear.5 mph40%29.68 "Hg10 mi
4:00 AM84 °FClear.6 mph43%29.71 "Hg10 mi
3:30 AM84 °FClear.7 mph45%29.71 "Hg10 mi
3:00 AM84 °FClear.7 mph48%29.71 "Hg10 mi
2:30 AM86 °FClear.7 mph46%29.71 "Hg10 mi
2:00 AM86 °FClear.8 mph43%29.71 "Hg10 mi
1:30 AM86 °FClear.8 mph46%29.71 "Hg10 mi
1:00 AM86 °FClear.8 mph46%29.71 "Hg10 mi
12:30 AM84 °FPassing clouds.7 mph51%29.71 "HgN/A
12:00 AM86 °FPassing clouds.3 mph49%29.71 "HgN/A
11:30 PM
Mon, Aug 3
86 °FPassing clouds.3 mph49%29.74 "HgN/A
11:00 PM90 °FClear.5 mph41%29.74 "Hg10 mi
10:30 PM90 °FClear.5 mph36%29.74 "Hg10 mi
10:00 PM91 °FClear.6 mph34%29.71 "Hg10 mi
9:30 PM95 °FClear.No wind28%29.71 "Hg10 mi
9:00 PM93 °FPassing clouds.3 mph30%29.71 "HgN/A
Weather by CustomWeather, © 2015

See weather overviewHow to use our weather pages